N4JTC Weather Reports


time (UTC)temp
F
wind
direction
speed
knots
gust
knots
rain 1hr
in
rain 24hr
in
rain mn
in
humidity
%
barometer
mb
20260507025503 75 131 0.9 2.6 0.00 0.00 0.00 92 1015.5
20260507025003 75 151 4.3 5.2 0.00 0.00 0.00 91 1015.4
20260507024502 75 128 2.6 4.3 0.00 0.00 0.00 91 1015.5
20260507024003 75 192 2.6 4.3 0.00 0.00 0.00 91 1015.4
20260507023503 75 129 1.7 2.6 0.00 0.00 0.00 92 1015.3
20260507022502 75 192 1.7 2.6 0.00 0.00 0.00 92 1015.2
20260507022003 75 129 1.7 2.6 0.00 0.00 0.00 92 1015.4
20260507021503 75 148 1.7 2.6 0.00 0.00 0.00 91 1014.8
20260507021003 75 165 1.7 3.5 0.00 0.00 0.00 91 1015.3
20260507020503 75 87 1.7 2.6 0.00 0.00 0.00 91 1015.3
20260507015502 75 111 1.7 2.6 0.00 0.00 0.00 92 1015.4
20260507015003 75 99 2.6 4.3 0.00 0.00 0.00 91 1014.9
20260507014503 75 207 3.5 4.3 0.00 0.00 0.00 91 1014.8
20260507014003 75 188 2.6 4.3 0.00 0.00 0.00 91 1014.9
20260507013503 75 188 1.7 2.6 0.00 0.00 0.00 91 1014.9
20260507013003 75 142 2.6 4.3 0.00 0.00 0.00 90 1015.0
20260507012503 76 141 2.6 3.5 0.00 0.00 0.00 90 1015.0
20260507011502 76 74 0.0 0.0 0.00 0.00 0.00 90 1015.6
20260507011003 76 79 1.7 2.6 0.00 0.00 0.00 90 1015.3
20260507010503 76 120 1.7 2.6 0.00 0.00 0.00 90 1015.3
20260507010003 76 180 3.5 4.3 0.00 0.00 0.00 90 1015.2
20260507005502 76 152 1.7 2.6 0.00 0.00 0.00 90 1015.1
20260507004503 76 166 2.6 3.5 0.00 0.00 0.00 89 1015.2
20260507004003 76 169 1.7 3.5 0.00 0.00 0.00 89 1015.1
20260507003503 76 126 3.5 4.3 0.00 0.00 0.00 89 1015.2
20260507003003 76 161 1.7 2.6 0.00 0.00 0.00 89 1015.0
20260507002502 76 181 3.5 5.2 0.00 0.00 0.00 88 1015.0
20260507002003 76 229 4.3 5.2 0.00 0.00 0.00 88 1014.8
20260507001503 76 116 3.5 4.3 0.00 0.00 0.00 88 1014.8
20260507001003 76 169 2.6 2.6 0.00 0.00 0.00 88 1014.9
20260507000503 76 154 2.6 5.2 0.00 0.00 0.00 87 1014.6
20260507000003 77 221 3.5 5.2 0.00 0.00 0.00 87 1014.9
20260506235503 77 142 5.2 6.1 0.00 0.00 0.00 86 1014.5
20260506235002 77 157 3.5 4.3 0.00 0.00 0.00 86 1014.7
20260506234503 78 181 3.5 5.2 0.00 0.00 0.00 84 1014.7
20260506234003 78 159 4.3 4.3 0.00 0.00 0.00 83 1014.7
20260506233503 78 188 4.3 6.1 0.00 0.00 0.00 83 1014.8
20260506232503 79 106 3.5 4.3 0.00 0.00 0.00 82 1014.7
20260506232003 79 213 5.2 7.8 0.00 0.00 0.00 81 1014.9
20260506231503 79 187 3.5 4.3 0.00 0.00 0.00 81 1014.6
20260506231003 79 201 5.2 6.1 0.00 0.00 0.00 79 1014.6
20260506230503 80 209 5.2 6.1 0.00 0.00 0.00 79 1014.5
20260506230002 80 180 3.5 5.2 0.00 0.00 0.00 78 1014.7
20260506225503 80 143 5.2 6.1 0.00 0.00 0.00 77 1014.8
20260506225003 80 161 4.3 6.1 0.00 0.00 0.00 78 1014.8
20260506224503 81 220 4.3 5.2 0.00 0.00 0.00 76 1014.8
20260506223503 81 203 4.3 5.2 0.00 0.00 0.00 75 1015.0
20260506222503 82 173 6.1 7.8 0.00 0.00 0.00 74 1015.2
20260506222003 82 196 4.3 6.1 0.00 0.00 0.00 73 1015.1
20260506221504 82 199 5.2 6.1 0.00 0.00 0.00 73 1015.2
20260506221003 82 200 5.2 6.1 0.00 0.00 0.00 73 1015.0
20260506220503 82 208 7.0 8.7 0.00 0.00 0.00 72 1015.2
20260506220002 82 168 3.5 4.3 0.00 0.00 0.00 72 1015.4
20260506215503 82 240 3.5 5.2 0.00 0.00 0.00 73 1015.6
20260506215003 82 227 2.6 4.3 0.00 0.00 0.00 72 1015.4
20260506214503 83 190 5.2 7.8 0.00 0.00 0.00 70 1015.5
20260506214003 83 166 4.3 6.1 0.00 0.00 0.00 72 1015.8
20260506213503 83 227 4.3 6.1 0.00 0.00 0.00 71 1015.8
20260506213003 83 241 3.5 4.3 0.00 0.00 0.00 70 1015.8
20260506212503 83 233 3.5 5.2 0.00 0.00 0.00 70 1015.7
20260506212003 82 223 2.6 3.5 0.00 0.00 0.00 70 1015.8
20260506211502 83 182 5.2 6.1 0.00 0.00 0.00 68 1015.6
20260506211003 83 200 2.6 4.3 0.00 0.00 0.00 68 1015.7
20260506210503 84 206 3.5 4.3 0.00 0.00 0.00 67 1015.7
20260506210003 82 148 1.7 2.6 0.00 0.00 0.00 71 1016.2
20260506205503 82 242 4.3 6.1 0.00 0.00 0.00 72 1016.0
20260506204503 83 233 3.5 4.3 0.00 0.00 0.00 71 1015.9
20260506204003 82 280 3.5 5.2 0.00 0.00 0.00 71 1016.0
20260506203503 83 189 6.1 8.7 0.00 0.00 0.00 72 1016.1
20260506203003 83 165 3.5 4.3 0.00 0.00 0.00 71 1015.9
20260506202503 83 187 4.3 6.1 0.00 0.00 0.00 71 1016.4
20260506202003 83 213 3.5 4.3 0.00 0.00 0.00 72 1016.5
20260506201502 83 244 4.3 6.1 0.00 0.00 0.00 71 1016.5
20260506200503 83 188 3.5 5.2 0.00 0.00 0.00 72 1016.6
20260506200003 83 234 7.0 7.8 0.00 0.00 0.00 73 1017.1
20260506195503 83 252 4.3 4.3 0.00 0.00 0.00 72 1017.1
20260506194502 82 226 3.5 6.1 0.00 0.00 0.00 74 1017.1
20260506194002 82 222 4.3 5.2 0.00 0.00 0.00 74 1017.1
20260506193503 84 218 3.5 6.1 0.00 0.00 0.00 73 1017.4
20260506193003 84 209 3.5 5.2 0.00 0.00 0.00 73 1017.2
20260506192503 83 230 5.2 7.8 0.00 0.00 0.00 73 1017.2
20260506192002 83 207 5.2 6.1 0.00 0.00 0.00 73 1017.3
20260506191502 83 203 6.1 8.7 0.00 0.00 0.00 73 1017.5
20260506191003 83 257 4.3 5.2 0.00 0.00 0.00 71 1017.4
20260506190503 83 202 6.1 8.7 0.00 0.00 0.00 72 1017.4
20260506185503 83 229 2.6 4.3 0.00 0.00 0.00 73 1017.6
20260506184503 84 242 4.3 5.2 0.00 0.00 0.00 69 1017.6
20260506184002 84 217 3.5 5.2 0.00 0.00 0.00 70 1017.7
20260506183503 83 161 2.6 3.5 0.00 0.00 0.00 69 1017.6
20260506183003 83 243 4.3 5.2 0.00 0.00 0.00 71 1017.5
20260506182503 83 194 1.7 2.6 0.00 0.00 0.00 72 1017.5
20260506182003 84 224 6.1 7.8 0.00 0.00 0.00 72 1017.5
20260506181503 83 174 5.2 6.1 0.00 0.00 0.00 70 1017.4
20260506181002 83 220 3.5 4.3 0.00 0.00 0.00 73 1017.8
20260506180503 83 197 3.5 5.2 0.00 0.00 0.00 73 1017.9
20260506180004 83 217 4.3 5.2 0.00 0.00 0.00 72 1018.0
20260506175502 83 264 4.3 6.1 0.00 0.00 0.00 71 1017.9
20260506175003 83 218 3.5 4.3 0.00 0.00 0.00 72 1017.9
20260506174503 83 232 2.6 3.5 0.00 0.00 0.00 72 1017.9
20260506173503 83 223 5.2 6.1 0.00 0.00 0.00 71 1017.8
20260506173003 83 218 3.5 3.5 0.00 0.00 0.00 73 1018.1
20260506172503 82 197 4.3 6.1 0.00 0.00 0.00 74 1018.0
20260506171503 81 237 3.5 4.3 0.00 0.00 0.00 75 1018.3
20260506170503 81 207 2.6 3.5 0.00 0.00 0.00 75 1018.3
20260506170003 81 220 2.6 3.5 0.00 0.00 0.00 77 1018.2
20260506165503 80 230 2.6 3.5 0.00 0.00 0.00 78 1018.2
20260506165003 81 206 4.3 5.2 0.00 0.00 0.00 77 1018.1
20260506164503 81 206 3.5 4.3 0.00 0.00 0.00 76 1018.0
20260506164003 81 167 3.5 4.3 0.00 0.00 0.00 76 1017.9
20260506163503 81 202 3.5 3.5 0.00 0.00 0.00 76 1017.8
20260506162502 80 212 4.3 5.2 0.00 0.00 0.00 78 1017.9
20260506162003 80 214 3.5 5.2 0.00 0.00 0.00 78 1017.8
20260506161503 79 226 4.3 5.2 0.00 0.00 0.00 78 1017.8
20260506161003 80 185 1.7 2.6 0.00 0.00 0.00 78 1017.7
20260506160503 79 168 4.3 8.7 0.00 0.00 0.00 78 1017.6
20260506155502 80 194 4.3 5.2 0.00 0.00 0.00 77 1017.7
20260506155003 80 133 2.6 4.3 0.00 0.00 0.00 79 1017.7
20260506154503 80 178 2.6 3.5 0.00 0.00 0.00 79 1017.6
20260506154003 80 195 5.2 5.2 0.00 0.00 0.00 78 1017.6
20260506153503 79 212 4.3 7.8 0.00 0.00 0.00 80 1017.7
20260506153003 79 240 5.2 6.1 0.00 0.00 0.00 80 1017.6
20260506152502 79 220 6.1 7.8 0.00 0.00 0.00 78 1017.4
20260506152003 79 230 4.3 4.3 0.00 0.00 0.00 79 1017.4
20260506151504 78 268 2.6 3.5 0.00 0.00 0.00 80 1017.4
20260506151002 78 201 6.1 7.8 0.00 0.00 0.00 81 1017.5
20260506150503 78 210 4.3 5.2 0.00 0.00 0.00 80 1017.2
20260506145503 79 215 7.0 8.7 0.00 0.00 0.00 80 1017.2
20260506145003 79 224 4.3 5.2 0.00 0.00 0.00 80 1017.1
20260506144502 79 173 3.5 4.3 0.00 0.00 0.00 80 1017.1
20260506143503 78 170 3.5 4.3 0.00 0.00 0.00 80 1017.1
20260506143003 78 175 3.5 4.3 0.00 0.00 0.00 81 1017.2
20260506142503 78 202 4.3 5.2 0.00 0.00 0.00 81 1017.0
20260506141503 78 202 3.5 4.3 0.00 0.00 0.00 81 1016.8
20260506140503 78 148 5.2 6.1 0.00 0.00 0.00 82 1016.7
20260506140002 78 180 4.3 5.2 0.00 0.00 0.00 82 1016.9
20260506135502 78 210 2.6 3.5 0.00 0.00 0.00 82 1016.8
20260506135003 77 173 4.3 5.2 0.00 0.00 0.00 83 1016.7
20260506134503 77 178 2.6 4.3 0.00 0.00 0.00 84 1016.6
20260506133502 76 197 1.7 3.5 0.00 0.00 0.00 86 1016.8
20260506132503 77 174 3.5 5.2 0.00 0.00 0.00 86 1016.4
20260506132002 76 192 4.3 5.2 0.00 0.00 0.00 86 1016.6
20260506131503 75 217 4.3 4.3 0.00 0.00 0.00 87 1016.2
20260506131003 75 234 3.5 4.3 0.00 0.00 0.00 88 1016.1
20260506130503 75 212 2.6 3.5 0.00 0.00 0.00 88 1016.2
20260506125502 74 179 3.5 5.2 0.00 0.00 0.00 90 1016.1
20260506125003 74 189 3.5 4.3 0.00 0.00 0.00 91 1016.1
20260506124503 74 59 0.9 1.7 0.00 0.00 0.00 93 1016.1
20260506124003 74 51 0.9 1.7 0.00 0.00 0.00 93 1016.0
20260506123503 73 50 0.9 1.7 0.00 0.00 0.00 95 1016.0
20260506123003 72 44 0.9 1.7 0.00 0.00 0.00 95 1016.0
20260506122502 72 32 0.0 0.0 0.00 0.00 0.00 95 1015.6
20260506122003 71 61 0.9 1.7 0.00 0.00 0.00 95 1015.7
20260506121503 71 138 2.6 3.5 0.00 0.00 0.00 95 1015.5
20260506121003 71 90 2.6 3.5 0.00 0.00 0.00 95 1015.5
20260506120503 71 75 0.9 1.7 0.00 0.00 0.00 95 1015.2
20260506120004 71 44 0.0 0.0 0.00 0.00 0.00 95 1015.1
20260506115502 71 58 0.0 0.0 0.00 0.00 0.00 95 1015.2
20260506115003 71 122 2.6 3.5 0.00 0.00 0.00 94 1015.1
20260506114503 71 116 1.7 2.6 0.00 0.00 0.00 95 1015.2
20260506114005 72 58 1.7 2.6 0.00 0.00 0.00 95 1015.0
20260506113503 72 142 1.7 2.6 0.00 0.00 0.00 95 1015.0
20260506113003 72 184 2.6 2.6 0.00 0.00 0.00 95 1014.7
20260506112503 72 60 0.9 1.7 0.00 0.00 0.00 95 1014.7
20260506111504 72 166 1.7 2.6 0.00 0.00 0.00 95 1014.7
20260506111003 72 72 0.9 1.7 0.00 0.00 0.00 95 1014.7
20260506110504 71 110 1.7 2.6 0.00 0.00 0.00 95 1014.3
20260506110004 71 114 0.9 1.7 0.00 0.00 0.00 95 1014.7
20260506105503 71 117 3.5 4.3 0.00 0.00 0.00 95 1014.7
20260506105003 72 62 0.9 1.7 0.00 0.00 0.00 95 1014.4
20260506104507 72 56 0.0 0.0 0.00 0.00 0.00 95 1014.6
20260506104003 72 54 0.0 0.0 0.00 0.00 0.00 95 1014.5
20260506103503 72 129 1.7 2.6 0.00 0.00 0.00 95 1014.4
20260506103003 72 64 0.9 1.7 0.00 0.00 0.00 95 1014.4
20260506102503 72 82 0.9 1.7 0.00 0.00 0.00 95 1014.5
20260506102003 72 72 0.9 1.7 0.00 0.00 0.00 95 1014.5
20260506101503 72 86 0.9 1.7 0.00 0.00 0.00 95 1014.5
20260506101003 72 69 0.9 1.7 0.00 0.00 0.00 95 1014.5
20260506100502 72 84 0.9 1.7 0.00 0.00 0.00 95 1014.2
20260506095503 72 58 0.0 0.0 0.00 0.00 0.00 94 1014.6
20260506095003 72 94 0.9 1.7 0.00 0.00 0.00 94 1014.3
20260506094503 72 173 1.7 3.5 0.00 0.00 0.00 94 1014.4
20260506093503 72 80 0.9 1.7 0.00 0.00 0.00 94 1014.2
20260506093003 72 165 2.6 3.5 0.00 0.00 0.00 94 1014.4
20260506092503 72 70 0.9 1.7 0.00 0.00 0.00 94 1014.5
20260506091502 72 72 0.0 0.0 0.00 0.00 0.00 94 1014.4
20260506091003 72 59 0.0 0.0 0.00 0.00 0.00 94 1014.3
20260506090503 72 70 0.9 1.7 0.00 0.00 0.00 94 1014.5
20260506090003 72 166 1.7 2.6 0.00 0.00 0.00 94 1014.7
20260506085502 72 156 1.7 2.6 0.00 0.00 0.00 94 1014.5
20260506084503 72 88 0.9 1.7 0.00 0.00 0.00 94 1014.5
20260506084008 72 145 1.7 3.5 0.00 0.00 0.00 93 1014.5
20260506083503 72 164 1.7 2.6 0.00 0.00 0.00 93 1014.5
20260506083003 72 58 0.0 0.0 0.00 0.00 0.00 93 1014.4
20260506082503 72 174 3.5 3.5 0.00 0.00 0.00 93 1014.8
20260506081503 72 115 1.7 3.5 0.00 0.00 0.00 93 1015.0
20260506081003 72 169 1.7 2.6 0.00 0.00 0.00 93 1014.8
20260506080503 72 161 1.7 2.6 0.00 0.00 0.00 93 1015.1
20260506073503 72 226 2.6 3.5 0.00 0.00 0.00 93 1014.8
20260506073003 72 176 2.6 4.3 0.00 0.00 0.00 93 1014.8
20260506072503 72 173 1.7 3.5 0.00 0.00 0.00 93 1014.8
20260506071502 72 127 1.7 1.7 0.00 0.00 0.00 93 1015.0
20260506071003 72 49 0.9 1.7 0.00 0.00 0.00 93 1015.0
20260506070503 72 180 2.6 3.5 0.00 0.00 0.00 93 1014.9
20260506062502 72 172 2.6 3.5 0.00 0.00 0.00 93 1014.9
20260506062003 72 168 2.6 3.5 0.00 0.00 0.00 93 1015.2
20260506061503 72 131 1.7 2.6 0.00 0.00 0.00 93 1015.2
20260506061003 72 169 3.5 4.3 0.00 0.00 0.00 94 1015.2
20260506060503 72 228 3.5 4.3 0.00 0.00 0.00 93 1015.2
20260506051003 72 151 2.6 3.5 0.00 0.00 0.00 93 1015.7
20260506050503 72 99 0.9 1.7 0.00 0.00 0.00 93 1015.6
20260506045003 72 136 1.7 2.6 0.00 0.00 0.00 93 1015.7
20260506044503 72 117 0.9 1.7 0.00 0.00 0.00 93 1015.8
20260506044003 72 82 0.9 1.7 0.00 0.00 0.00 93 1015.8
20260506043503 72 129 1.7 2.6 0.00 0.00 0.00 93 1015.9
20260506042502 72 113 1.7 2.6 0.00 0.00 0.00 93 1016.1
20260506042003 72 101 0.9 1.7 0.00 0.00 0.00 93 1016.0
20260506041503 72 115 0.9 1.7 0.00 0.00 0.00 93 1016.0
20260506041003 72 101 1.7 2.6 0.00 0.00 0.00 93 1016.0
20260506040503 72 112 1.7 2.6 0.00 0.00 0.00 92 1016.3
20260506035503 72 98 0.0 0.0 0.00 0.00 0.00 92 1016.2
20260506035003 72 52 0.9 2.6 0.00 0.00 0.00 92 1016.4
20260506034503 72 156 1.7 2.6 0.00 0.00 0.00 92 1016.2
20260506034003 72 143 1.7 2.6 0.00 0.00 0.00 92 1016.2
20260506033506 72 61 0.0 0.0 0.00 0.00 0.00 92 1016.2
20260506032503 73 93 0.9 1.7 0.00 0.00 0.00 92 1016.2
20260506032003 73 123 0.9 2.6 0.00 0.00 0.00 92 1016.2
20260506031502 73 94 0.9 1.7 0.00 0.00 0.00 92 1016.2
20260506031003 73 173 2.6 3.5 0.00 0.00 0.00 92 1016.2
20260506030503 73 178 2.6 3.5 0.00 0.00 0.00 92 1016.4